CAPE
0 0 0 2 18 0 0 0 0 0 0 11 0 0 0 0 0 21 4 0 0 125 427 202 171 165 65 21 40 74 98 69 34 33 44 42 30 11 4 17 40 44 30 15 20 22 16 9 4
0 0 0 13 0 0 0 0 0 0 0 0 0 2 42 6 21 55 59 0 4 379 316 205 62 90 57 16 17 25 23 35 38 32 48 35 23 17 0 15 53 29 19 12 18 17 4 13 14
0 0 0 5 0 0 0 0 0 0 0 0 0 8 88 121 107 48 35 8 78 393 390 197 34 81 71 21 19 22 22 27 42 31 51 53 31 39 41 47 47 33 15 19 22 14 18 23 45
0 0 0 0 0 0 0 0 0 0 0 0 0 0 1 91 141 29 0 27 186 302 294 56 87 106 33 16 23 20 34 35 46 44 30 35 36 28 54 55 62 35 16 12 14 30 34 56 52
0 0 0 0 0 0 0 0 0 0 0 0 0 0 0 107 18 14 1 51 240 239 255 120 77 44 21 18 21 26 28 26 46 46 47 52 50 54 54 48 39 47 37 19 23 44 45 69 54
4 0 0 1 0 0 0 0 0 0 0 0 0 0 0 22 61 48 53 84 236 194 212 148 30 2 4 24 21 38 28 27 31 69 51 48 60 77 54 40 53 63 59 51 47 47 44 59 49
0 0 0 0 0 0 0 0 0 0 0 0 0 0 19 7 16 70 107 148 235 180 204 150 65 8 0 1 12 21 29 42 37 52 35 36 46 47 38 33 52 94 59 58 42 33 55 49 48
0 0 0 0 0 0 0 0 0 0 0 0 0 43 42 0 12 156 146 144 213 167 230 130 92 75 13 4 6 3 22 34 37 29 22 30 13 18 21 16 63 154 79 40 6 17 22 20 27
0 0 0 0 0 0 0 0 0 0 0 0 0 0 0 0 14 79 137 113 124 176 224 196 184 168 99 21 10 0 6 12 16 23 23 3 1 0 3 10 43 161 56 20 10 12 9 2 1
0 0 0 0 0 0 0 0 0 0 0 0 0 0 0 0 0 0 79 170 174 126 195 302 338 271 206 71 20 11 19 16 21 38 43 15 11 16 30 19 45 26 13 29 18 9 1 2 20
0 0 0 0 0 0 0 0 0 0 0 0 0 0 0 0 0 0 0 26 152 90 100 227 344 329 252 199 100 27 24 29 24 41 28 4 17 40 24 46 80 58 1 40 9 5 11 17 24
0 0 0 0 0 0 0 0 0 0 0 0 0 0 0 0 0 0 0 0 38 150 79 156 260 289 301 248 191 74 66 48 27 21 18 5 15 38 31 41 105 79 41 24 11 14 11 5 5
0 0 0 0 0 0 0 0 0 0 0 0 0 0 0 0 0 0 0 0 0 112 187 152 228 281 224 252 191 166 98 59 17 22 24 11 7 29 31 69 65 20 57 6 6 6 3 2 1
0 0 0 0 0 0 0 0 0 0 0 0 0 0 0 0 0 0 0 0 0 1 207 231 175 204 299 214 233 155 98 45 39 23 24 18 19 36 38 54 55 6 30 6 2 1 2 1 0
0 0 0 0 0 0 0 0 0 0 0 0 0 0 0 0 0 0 0 0 0 0 1 243 216 239 220 251 240 161 66 12 5 14 5 6 21 24 35 28 24 0 0 2 2 1 0 0 0
0 0 0 0 0 0 0 0 0 0 0 0 0 0 0 0 0 0 0 0 0 0 0 1 202 216 242 175 213 175 101 51 20 2 11 0 1 4 29 15 6 0 0 0 1 0 0 0 0
0 0 0 0 0 0 0 0 0 0 0 0 0 0 0 0 0 0 0 0 0 0 0 0 67 191 207 197 117 163 89 53 63 27 13 10 0 0 1 18 0 0 0 0 0 0 0 0 0
0 0 0 0 0 0 0 0 0 0 0 0 0 0 0 0 0 0 0 0 0 0 0 0 0 158 221 189 153 112 119 75 20 29 16 8 0 0 1 6 0 0 0 0 0 0 0 0 0
0 0 0 0 0 0 0 0 0 0 0 0 0 0 0 0 0 0 0 0 0 0 0 0 0 0 204 172 169 110 52 78 75 40 8 17 7 0 15 4 3 0 0 0 0 0 0 0 0
0 0 0 0 0 0 0 0 0 0 0 0 0 0 0 0 0 0 0 0 0 0 0 0 0 0 0 157 141 112 61 55 80 50 6 1 5 1 1 1 6 0 0 0 0 0 0 0 0
0 0 0 0 0 0 0 0 0 0 0 0 0 0 0 0 0 0 0 0 0 0 0 0 0 0 0 0 24 74 31 28 15 26 6 1 6 1 3 0 0 0 0 0 0 0 0 0 0
0 0 0 0 0 0 0 0 0 0 0 0 0 0 0 0 0 0 0 0 0 0 0 0 0 0 0 0 0 16 25 5 6 19 2 2 0 2 0 0 0 0 0 0 0 0 0 0 0
0 0 0 0 0 1 0 2 0 0 0 0 0 0 0 0 0 0 0 0 0 0 0 0 0 0 0 0 0 1 36 1 1 1 2 1 0 0 0 0 0 0 0 0 0 0 0 0 0
0 0 0 0 0 1 0 0 0 0 0 0 0 0 0 0 0 0 0 0 0 0 0 0 0 0 0 0 0 0 51 54 6 0 0 0 0 0 0 0 0 0 0 0 0 0 0 0 0
0 0 0 0 0 0 0 0 0 0 0 0 0 4 1 0 1 10 11 4 0 0 0 0 0 0 0 0 0 0 9 63 0 0 0 0 0 0 0 0 0 0 0 0 0 0 0 0 0
0 0 0 0 0 0 0 0 0 0 0 0 2 2 0 2 14 0 3 5 5 3 2 1 1 0 0 0 0 0 0 32 0 0 0 0 0 0 0 0 0 0 0 0 0 0 0 0 0
0 0 0 10 0 9 0 0 0 0 0 0 16 26 16 16 15 11 5 6 9 8 8 5 5 3 1 0 0 0 0 1 0 0 0 0 0 0 0 0 0 0 0 0 0 0 0 0 0
0 0 0 3 3 0 0 0 0 0 3 22 28 11 18 16 10 11 12 10 10 10 12 12 4 7 4 3 1 0 0 0 0 0 0 0 0 2 2 0 0 0 0 0 0 0 0 0 0
0 0 0 5 5 7 5 0 0 0 5 9 17 14 15 10 12 16 17 13 15 17 17 19 19 8 5 9 4 0 0 0 0 2 0 3 1 2 0 0 0 0 0 0 0 0 0 0 0
0 0 0 0 0 2 5 0 0 0 0 2 17 13 10 11 17 12 13 15 12 15 12 9 6 11 4 3 5 0 0 1 0 0 0 0 0 0 0 0 0 0 0 0 0 0 0 0 0
CIN
0 0 0 -2 -2 0 0 0 0 0 0 -27 0 0 0 0 0 -2 -174 0 0 -188 -76 -86 -65 -69 -105 -106 -72 -81 -81 -94 0 0 -1 0 0 -1 -3 -3 -2 -1 -2 -1 0 0 0 0 -3
0 0 0 -12 0 0 0 0 0 0 0 0 0 -19 -34 -23 -89 -163 -282 0 -62 -140 -107 -99 -126 -87 -111 0 0 -96 -14 -193 0 0 0 0 0 0 0 -3 -2 0 -2 -1 0 0 0 0 0
0 0 0 -1 0 0 0 0 0 0 0 0 0 -27 -42 -25 -106 -171 -320 -395 -271 -140 -106 -118 -157 -105 -103 0 0 0 0 0 0 -1 -1 0 0 0 0 -1 -1 -1 0 0 0 0 0 -3 -1
0 0 0 0 0 0 0 0 0 0 0 0 0 0 -1 -127 -114 -214 -3 -348 -197 -140 -113 -213 -151 -101 -24 0 0 0 0 0 0 0 0 0 0 -2 -1 -1 -2 0 0 0 0 0 -4 -1 -2
0 0 0 0 0 0 0 0 0 0 0 0 0 0 0 -139 -296 -292 -67 -275 -160 -133 -109 -146 -159 -132 -24 0 0 0 0 0 0 0 0 0 -1 -1 -1 -2 -1 0 -1 -2 -2 0 -6 -1 -5
-4 0 0 -65 0 0 0 0 0 0 0 0 0 0 0 -178 -160 -257 -259 -209 -121 -137 -103 -114 -172 -2 -3 -162 0 0 -1 0 0 -69 -1 -1 0 0 -1 -2 0 -2 -1 -2 -2 0 -8 -6 -12
0 0 0 0 0 0 0 0 0 0 0 0 0 0 -56 -12 -216 -195 -202 -162 -97 -117 -103 -100 -134 -60 0 -1 -5 -5 -5 -3 -3 -32 -5 -2 -1 -2 -4 -1 -2 0 -2 -2 -2 0 -4 -9 -12
0 0 0 0 0 0 0 0 0 0 0 0 -5 -5 -51 0 -25 -130 -141 -136 -107 -127 -92 -122 -126 -127 -7 0 -7 -16 -14 -11 -12 -11 -26 -7 -7 -21 -23 -20 -6 -2 -1 -1 -1 0 -1 -2 -3
0 0 0 0 0 0 0 0 0 0 0 0 0 0 0 0 -150 -100 -91 -105 -109 -99 -86 -71 -68 -88 -102 -140 -3 0 -9 -11 -17 -20 -27 -2 -2 -1 -9 -3 -9 -5 -2 -1 0 0 0 0 0
0 0 0 0 0 0 0 0 0 0 0 0 0 0 0 0 0 0 -74 -49 -55 -71 -67 -27 -18 -27 -43 -112 -159 0 0 -1 -1 -6 -11 -10 0 0 -3 -14 -12 -20 -27 -1 0 0 0 0 0
0 0 0 0 0 0 0 0 0 0 0 0 0 0 0 0 0 0 0 -105 -42 -65 -50 -24 -13 -5 -12 -22 -67 -40 -14 0 0 -7 -17 -25 -1 -5 -14 -8 -1 -1 -18 0 -1 0 0 0 0
0 0 0 0 0 0 0 0 0 0 0 0 0 0 0 0 0 0 0 0 -63 -20 -52 -33 -21 -4 -5 -12 -18 -75 -82 -76 0 -7 -18 -29 0 -14 -10 -1 -2 0 0 0 0 0 0 0 0
0 0 0 0 0 0 0 0 0 0 0 0 0 0 0 0 0 0 0 0 0 -17 -15 -26 -23 -5 -4 -2 -10 -21 -60 -77 0 0 -1 -10 -3 -3 -9 -11 0 0 0 0 0 0 0 0 0
0 0 0 0 0 0 0 0 0 0 0 0 0 0 0 0 0 0 0 0 0 0 -1 -5 -12 -32 -4 -1 -2 -18 -31 -61 -35 0 0 0 0 0 0 -52 -44 -2 0 0 0 0 0 0 0
0 0 0 0 0 0 0 0 0 0 0 0 0 0 0 0 0 0 0 0 0 0 0 0 -4 -6 -22 0 0 -12 -54 -90 -20 -23 -13 -31 -23 0 -2 -69 -2 0 0 0 0 0 0 0 0
0 0 0 0 0 0 0 0 0 0 0 0 0 0 0 0 0 0 0 0 0 0 0 0 -3 -1 -1 -22 -1 -1 -7 -49 -71 -39 -42 -13 -47 -17 0 0 -1 0 0 0 0 0 0 0 0
0 0 0 0 0 0 0 0 0 0 0 0 0 0 0 0 0 0 0 0 0 0 0 0 -8 -1 0 -2 -12 0 -8 -20 -27 -53 -50 -55 0 0 0 0 0 0 0 0 0 0 0 0 0
0 0 0 0 0 0 0 0 0 0 0 0 0 0 0 0 0 0 0 0 0 0 0 0 0 -1 0 -1 -1 -1 -2 -5 -32 -37 -30 -68 0 0 -13 0 0 0 0 0 0 0 0 0 0
0 0 0 0 0 0 0 0 0 0 0 0 0 0 0 0 0 0 0 0 0 0 0 0 0 0 -2 0 0 0 -5 0 -2 -35 -95 -36 -34 0 -61 0 0 0 0 0 0 0 0 0 0
0 0 0 0 0 0 0 0 0 0 0 0 0 0 0 0 0 0 0 0 0 0 0 0 0 0 0 -1 0 -1 -5 -5 -6 -22 -82 -1 0 -1 -1 0 0 0 0 0 0 0 0 0 0
0 0 0 0 0 0 0 0 0 0 0 0 0 0 0 0 0 0 0 0 0 0 0 0 0 0 0 0 -42 -58 -30 -3 -13 -24 -11 -2 -17 0 0 0 0 0 0 0 0 0 0 0 0
0 0 0 0 0 0 0 0 0 0 0 0 0 0 0 0 0 0 0 0 0 0 0 0 0 0 0 0 0 -6 -46 -1 -56 -17 -31 -61 -1 0 -1 -1 0 0 0 0 0 0 0 0 0
0 0 0 0 0 0 0 0 0 0 0 0 0 0 0 0 0 0 0 0 0 0 0 0 0 0 0 0 0 0 -4 -4 -3 -1 -43 -48 0 0 0 0 0 0 0 0 0 0 0 0 0
0 0 0 0 0 0 0 0 0 0 0 0 0 0 0 0 0 0 0 0 0 0 0 0 0 0 0 0 0 0 -8 -1 -21 0 0 0 0 0 0 0 0 0 0 0 0 0 0 0 0
0 0 0 0 0 0 0 0 0 0 0 0 0 0 0 0 0 0 0 0 0 0 0 0 0 0 0 0 0 0 -52 -11 0 0 0 0 0 0 0 0 0 0 0 0 0 0 0 0 0
0 0 0 0 0 0 0 0 0 0 0 0 -9 -4 0 0 0 0 0 0 0 0 0 0 0 0 0 0 0 0 0 -2 0 0 0 0 0 0 0 0 0 0 0 0 0 0 0 0 0
0 0 0 0 0 0 0 0 0 0 0 0 0 0 0 0 0 0 0 0 0 0 0 0 0 0 0 0 0 0 0 -6 0 0 0 0 0 0 0 0 0 0 0 0 0 0 0 0 0
0 0 0 0 0 0 0 0 0 0 0 0 0 0 0 0 0 0 0 0 0 0 0 0 0 0 0 0 0 0 0 0 0 0 0 0 0 0 0 0 0 0 0 0 0 0 0 0 0
0 0 0 0 0 0 0 0 0 0 0 0 0 0 0 0 0 0 0 0 0 0 0 0 0 0 0 0 0 0 0 0 0 0 0 0 0 0 0 0 0 0 0 0 0 0 0 0 0
0 0 0 0 0 0 0 0 0 0 0 0 0 0 0 0 0 0 0 0 0 0 0 0 0 0 0 0 0 0 0 0 0 0 0 0 0 0 0 0 0 0 0 0 0 0 0 0 0
Wind_Speed
16 10 4 4 6 5 8 5 7 7 7 3 4 6 7 11 6 6 1 11 12 19 20 21 20 20 20 19 17 16 16 18 17 15 17 18 17 16 15 14 14 14 13 13 12 12 12 11 11
13 6 4 3 7 9 7 7 10 7 6 10 8 8 8 10 3 2 5 11 15 19 19 19 19 19 19 20 18 17 16 15 18 17 17 17 16 16 15 14 15 14 13 13 14 14 12 11 11
11 4 4 4 6 10 5 6 3 4 5 4 2 2 5 3 4 3 2 11 18 18 19 17 19 21 20 20 20 18 18 16 16 16 17 17 17 15 14 14 15 13 14 15 15 13 11 9 12
4 1 1 5 11 9 10 6 6 7 3 2 5 10 3 1 1 5 5 12 17 17 18 18 19 21 20 19 18 19 17 17 17 16 17 16 15 14 11 13 15 13 13 14 14 12 9 10 14
2 1 3 5 5 11 9 10 8 10 10 7 7 6 7 6 8 3 5 12 17 16 16 18 18 21 19 19 18 17 19 19 17 18 17 16 15 15 13 14 13 12 13 13 12 9 7 13 14
4 2 5 11 12 5 9 12 11 8 8 6 3 7 3 3 7 3 3 11 15 16 16 17 14 16 18 18 18 18 17 18 19 18 17 17 17 15 14 14 14 15 15 14 12 9 7 12 13
4 6 9 11 12 10 5 13 9 7 5 3 7 6 2 13 12 1 6 8 13 14 14 16 17 16 13 15 15 14 15 16 17 17 16 15 17 15 14 13 15 15 17 15 14 10 10 12 12
3 3 7 7 10 13 7 10 5 8 5 13 3 2 4 12 10 1 3 7 11 12 13 17 17 18 17 16 11 12 13 13 13 15 12 12 13 14 14 10 11 16 16 16 15 13 12 12 12
2 6 9 11 7 1 7 10 5 11 11 10 5 9 5 11 8 3 4 7 9 10 11 14 13 15 17 16 15 12 9 10 11 10 12 12 10 13 15 12 12 15 16 16 16 15 14 13 12
4 5 6 1 2 6 11 10 14 10 15 16 18 3 14 16 12 9 8 9 11 11 11 11 13 14 15 13 16 16 14 10 11 10 12 9 11 12 10 9 11 15 14 14 16 16 15 11 9
0 4 1 2 6 8 10 13 6 12 16 15 17 20 20 20 17 14 13 13 13 13 9 12 12 13 14 12 10 8 9 9 9 10 11 8 8 6 5 6 8 10 12 9 10 10 7 8 7
2 2 5 6 7 7 8 10 10 13 17 12 16 13 16 19 16 15 15 14 13 14 14 15 12 14 16 10 10 12 11 12 11 9 12 8 8 6 6 7 8 8 8 11 9 6 8 9 9
1 3 6 5 7 5 7 8 13 20 17 9 12 15 17 17 18 16 16 15 14 15 17 15 15 13 14 16 11 13 14 12 14 14 14 10 11 9 7 9 7 8 8 9 9 9 8 9 9
3 7 8 4 5 1 8 18 5 7 9 10 16 20 19 21 19 18 16 15 15 14 15 18 16 14 15 13 16 12 11 13 12 11 15 18 13 11 11 8 7 8 9 9 9 9 9 9 9
3 4 5 4 5 4 14 6 7 11 10 18 22 20 20 18 18 17 17 16 15 15 15 17 17 18 15 16 13 13 12 12 12 11 14 14 14 15 14 8 8 7 8 12 10 11 10 9 9
3 1 7 5 9 3 10 10 17 18 15 21 19 16 15 15 13 14 15 16 16 16 17 17 17 17 19 14 13 11 13 13 12 11 12 15 14 14 14 8 7 8 7 9 10 10 10 10 9
7 7 9 11 5 5 4 18 20 23 18 17 14 11 8 7 8 10 13 13 14 14 16 17 19 19 18 18 12 13 13 13 13 12 12 18 15 15 12 11 7 10 9 8 9 9 10 10 10
9 8 7 14 7 9 17 23 22 19 15 14 8 2 4 6 8 11 14 13 12 13 12 15 16 19 18 14 13 10 12 13 12 13 13 18 14 17 15 12 13 12 9 9 10 12 10 9 12
8 11 15 16 9 14 12 25 22 17 10 5 4 4 6 10 10 11 12 14 14 12 13 12 11 16 15 13 13 14 12 12 13 14 17 18 17 18 17 13 14 13 12 13 13 13 15 10 11
9 13 12 12 3 12 17 24 18 7 3 6 5 4 7 11 14 15 16 15 15 14 13 13 14 13 12 14 12 13 13 11 12 12 15 18 19 19 17 17 16 15 12 14 16 16 12 5 11
12 6 13 12 21 3 12 13 5 3 5 6 7 6 7 10 14 17 19 18 16 15 14 14 15 16 12 14 10 12 11 9 9 13 11 15 19 19 20 17 15 16 14 13 16 16 15 12 10
8 1 14 17 12 7 8 8 10 3 11 9 9 7 10 15 16 18 20 21 17 15 16 15 16 16 14 12 12 17 16 15 13 12 12 13 17 17 18 17 16 16 10 15 15 14 12 12 14
9 17 19 14 8 7 3 4 8 11 7 8 6 11 15 16 19 24 21 20 18 16 17 17 17 17 16 15 12 12 13 13 12 12 16 16 15 17 17 17 17 16 12 13 16 16 12 11 11
14 12 3 2 2 4 3 5 12 7 6 8 7 12 17 22 26 24 21 18 20 20 18 17 18 17 16 15 15 14 14 12 8 12 12 11 12 13 17 17 17 17 15 16 15 15 15 14 11
12 7 5 4 2 5 3 9 13 14 14 11 11 20 22 26 24 23 21 23 22 21 20 17 18 17 15 15 15 15 16 14 16 15 11 10 7 6 13 19 19 16 18 17 15 16 14 13 11
5 4 3 7 6 13 16 10 7 6 4 6 17 19 24 25 18 24 24 22 21 21 20 19 18 18 15 14 15 14 15 8 9 13 10 10 10 10 12 15 17 18 16 15 16 11 11 13 11
1 1 2 6 6 7 5 8 14 4 7 20 24 23 26 17 23 22 23 22 21 20 20 19 18 17 16 15 13 13 11 10 9 10 12 10 8 6 7 6 9 12 15 14 14 11 12 11 11
3 4 2 2 6 9 8 13 13 14 20 20 22 24 22 24 23 22 21 20 20 19 17 17 17 18 16 14 12 11 11 12 8 9 7 10 9 9 10 10 10 8 8 10 13 11 12 14 9
3 2 3 4 4 5 9 9 4 13 20 23 24 25 24 23 22 22 21 21 19 18 15 14 14 14 13 11 11 7 3 10 11 9 10 9 12 12 12 12 13 15 11 15 13 13 15 16 13
3 3 2 3 2 5 6 11 6 13 21 24 22 21 24 22 22 21 21 20 18 17 15 13 12 12 11 11 9 6 7 10 13 12 11 12 13 13 15 14 14 13 17 13 15 16 15 16 15
Wind_Direction
318 322 280 228 230 236 239 233 276 251 269 35 332 279 301 314 288 331 74 172 166 162 153 158 156 162 159 162 166 162 163 159 161 153 142 142 142 139 135 136 128 132 131 133 130 126 121 117 111
308 310 229 257 248 232 233 237 241 270 324 308 270 262 262 283 307 356 146 172 173 160 157 162 161 162 162 160 166 166 163 167 165 168 156 152 148 147 147 146 142 140 137 138 146 131 133 127 120
288 263 268 258 249 244 267 211 304 168 327 355 320 273 304 316 325 308 339 168 174 167 164 163 165 162 165 164 166 170 174 164 161 164 163 162 158 163 162 149 137 149 143 150 139 140 143 142 137
280 212 276 251 246 257 265 273 292 299 308 256 341 300 254 242 265 351 146 169 176 176 172 153 166 163 169 164 166 173 171 172 166 160 164 167 157 153 159 152 134 150 150 148 146 150 155 143 131
147 355 264 227 263 250 250 276 313 299 302 299 308 298 287 38 354 20 193 180 180 181 179 167 169 166 169 168 171 169 174 175 165 171 165 173 161 167 160 150 142 147 152 147 151 139 127 123 121
184 212 228 241 232 242 285 298 292 275 305 311 295 317 10 14 353 25 198 193 184 185 183 177 166 169 170 170 183 187 171 174 171 169 166 167 168 165 154 146 166 169 151 146 144 140 119 112 116
216 213 237 255 259 265 271 340 314 318 284 319 325 277 27 16 3 310 178 199 193 193 187 184 180 173 168 174 191 177 184 180 178 168 175 174 167 160 148 170 181 171 150 144 131 137 125 115 115
248 245 232 241 256 265 14 334 6 26 314 329 318 294 343 356 1 338 222 207 208 193 196 189 187 184 181 183 194 191 185 178 182 174 161 149 155 155 164 184 191 161 146 138 138 141 139 132 119
290 239 256 259 264 338 352 345 339 329 278 327 314 321 17 359 355 329 237 220 221 208 207 199 192 187 189 183 183 189 195 188 171 179 154 159 175 167 175 188 167 138 133 143 144 137 126 118 117
231 234 243 18 357 312 323 325 322 310 304 296 297 283 331 334 333 315 276 243 226 228 209 215 199 195 191 188 185 190 189 199 194 183 171 176 176 183 176 172 134 130 132 142 140 127 129 169 140
21 270 65 158 342 334 309 296 312 287 281 293 314 317 319 319 313 297 281 260 243 223 221 211 205 199 196 195 184 190 192 188 197 186 163 179 183 170 176 165 150 144 147 144 124 137 163 139 138
256 13 345 333 331 312 305 314 285 279 280 304 305 311 310 310 307 309 307 284 250 229 214 215 206 201 199 194 193 193 192 191 191 184 172 174 183 169 188 184 176 157 163 147 159 146 135 129 124
39 337 290 283 288 270 298 283 286 274 277 277 285 295 304 307 305 301 301 296 282 247 228 213 204 201 202 194 201 194 198 195 194 191 186 182 180 181 179 192 158 151 150 159 151 142 135 124 119
335 287 284 243 353 351 326 307 267 276 214 280 308 307 310 307 306 302 292 292 289 270 242 224 212 202 199 208 198 194 192 190 197 196 192 192 190 190 184 169 165 159 167 159 150 144 137 126 117
326 296 289 194 347 344 323 238 253 295 275 298 305 307 309 311 307 296 295 291 288 287 271 239 215 210 205 203 210 193 188 190 190 190 193 194 193 192 194 174 162 156 161 155 144 139 132 126 115
354 311 338 339 341 30 343 309 293 298 317 301 302 301 312 321 326 320 319 308 294 283 277 259 228 215 206 209 202 208 185 186 190 191 189 186 183 188 189 175 157 150 145 154 152 148 141 134 129
37 322 318 310 313 304 312 299 286 305 307 300 308 315 327 350 5 357 342 333 323 300 283 271 244 221 210 210 208 203 201 189 189 190 190 190 183 179 179 176 152 153 152 149 150 146 146 136 126
325 317 302 295 335 324 302 287 301 310 308 302 311 314 318 327 334 339 342 341 331 319 307 288 264 233 216 211 211 223 185 188 191 192 192 188 184 181 183 179 159 158 156 154 151 144 140 136 133
287 285 291 294 333 323 306 295 307 312 309 295 198 245 316 327 323 321 330 337 331 324 319 307 307 297 226 219 208 208 212 191 189 188 191 192 189 185 185 180 168 167 167 162 154 141 140 135 133
296 292 308 303 237 326 316 301 309 301 253 216 202 269 322 324 328 334 334 332 329 320 315 312 303 296 312 235 220 211 207 200 199 190 191 191 191 186 190 179 180 175 162 157 156 154 142 129 170
322 275 325 314 315 277 304 284 280 260 223 215 221 273 289 313 317 326 327 326 320 316 312 308 303 298 291 290 271 200 207 191 204 182 192 193 190 188 188 183 178 173 169 168 167 164 163 155 193
308 326 305 302 314 302 19 286 300 222 288 235 232 271 319 329 323 322 320 317 313 307 307 299 297 294 290 286 285 264 200 193 186 191 187 188 190 188 190 182 175 169 171 172 173 179 172 164 171
277 316 294 300 274 318 167 258 271 298 293 248 258 320 323 326 321 317 312 312 306 303 304 296 291 288 284 280 271 280 249 207 183 184 184 184 188 182 182 180 177 170 160 174 177 175 176 173 163
305 299 305 184 272 252 200 254 283 302 298 291 288 317 325 326 320 315 311 305 302 305 299 294 288 282 281 277 278 270 247 208 192 172 172 182 186 188 182 174 174 166 169 173 181 179 177 170 172
347 327 339 329 302 285 147 293 264 295 293 283 314 325 329 321 319 314 313 307 302 300 297 293 284 279 281 277 277 267 271 214 178 173 173 169 168 173 180 170 175 173 178 175 175 174 174 171 169
6 354 36 305 310 298 288 236 279 318 308 312 327 328 322 318 321 311 309 308 302 298 293 288 283 279 276 274 272 262 283 222 187 175 172 179 181 181 176 181 182 171 172 169 166 166 164 156 145
97 350 25 264 244 270 256 273 283 15 330 325 322 321 322 321 318 316 312 309 305 298 292 287 280 277 275 273 270 267 285 193 178 181 169 178 175 169 160 176 181 164 159 160 155 148 144 128 128
280 357 238 206 302 296 273 297 313 349 330 319 326 327 326 324 323 319 318 313 307 300 294 279 276 272 271 268 265 266 292 170 161 150 143 128 117 123 116 105 100 82 109 124 130 121 119 113 108
192 184 216 282 259 292 309 299 12 344 327 336 329 329 331 329 325 325 321 318 310 307 293 284 276 267 261 262 260 259 227 119 112 118 113 118 116 116 112 113 113 110 103 111 108 104 107 103 103
235 219 220 249 263 262 277 273 286 330 340 339 323 329 332 330 328 327 326 321 320 315 308 296 282 269 258 253 259 149 120 119 107 105 104 109 112 110 111 108 102 104 112 107 112 113 112 108 102